Location: Camaret
(48.2753°N, 4.5961°W)
Time: 01:15:46
(UTC+00:00)

Cosmos 1346 Rocket - Pass Details

Date: 29 October 2020
Orbit: 535 x 543 km, 81.2° (Epoch: 26 November)

Event Time Altitude Azimuth Distance (km) Brightness Sun altitude
Rises 19:04:16 0° 342° (NNW) 2,717 6.6 -20.6°
Reaches altitude 10° 19:06:30 10° 337° (NNW) 1,820 5.8 -20.9°
Maximum altitude 19:10:19 44° 264° (W) 756 3.9 -21.6°
Drops below altitude 10° 19:14:07 10° 192° (SSW) 1,806 5.5 -22.2°
Sets 19:16:19 0° 186° (S) 2,693 6.4 -22.6°
